User: anonymous   Login
Location: C�mpuri de-Sus
(45.9500°N, 22.5500°E)
Time: 22:42:18
(UTC+00:00)
Language:

Meteor 1-11 - Orbit

View from above orbital plane
View from above orbital plane
View from above satellite
View from above satellite

Ground track
Ground track

The orbit data is extracted from the following two-line orbital elements,

1  5917U 72022A   22017.13073009  .00000177  00000-0  95027-4 0  9992
2  5917  81.2222  55.1035 0030524 198.2718 161.7358 14.08734711557712
Epoch (UTC): 17 January 2022 03:08:15
Eccentricity: 0.0030524
inclination: 81.2222°
perigee height: 841 km
apogee height: 886 km
right ascension of ascending node: 55.1035°
argument of perigee: 198.2718°
revolutions per day: 14.08734711
mean anomaly at epoch: 161.7358°
orbit number at epoch: 55771

The dashed part of the orbit path shows where the satellite is in the earth's shadow,  

DLR